Vertical_Velocity
1 -2 -1 -9 -6 -7 -3 3 -3 -2 3 3 -3 -1 -5 -2 3 1 -6 -4 1 4 2 2 -2 -0 1 -0 4 2 1 1 2 -2 -2 -1 -0 -1 -3 2 3 -3 1 2
1 -0 -4 -0 1 -2 1 -2 2 3 1 7 1 -5 -4 -0 -7 -4 -1 -3 -3 3 2 1 -2 -1 -2 3 -0 1 1 3 -1 2 3 7 3 2 5 6 0 2 2 2
-2 -1 1 1 3 1 2 -5 1 -10 2 3 4 1 3 -3 4 2 -0 -2 0 -4 2 1 -2 -3 -0 2 1 1 -1 6 4 2 -2 -1 -3 -1 2 2 1 -5 2 -0
0 -3 -1 2 -1 -3 2 -2 -3 -1 0 -3 6 -4 4 -2 -1 2 -1 -0 -6 -0 -6 15 -2 -5 -0 3 -3 1 1 1 -1 3 2 2 2 3 1 -2 -4 -1 1 -1
8 0 1 3 -8 1 -6 -1 -3 -1 1 4 9 9 -16 1 2 -3 -3 -4 -1 1 -0 2 -3 -7 -1 -4 2 -1 -0 -1 -0 1 1 -0 2 0 0 1 1 1 -1 -0
2 2 0 -2 -1 -0 -0 2 2 2 2 5 -9 3 -8 2 -3 -2 -2 -3 -6 -0 -3 8 9 -13 -3 -1 -2 0 -1 -1 0 0 0 0 -0 -0 1 -1 1 -0 -0 -1
1 1 -1 1 4 3 6 3 3 6 4 -4 0 8 -13 2 -1 -1 -1 -0 -0 0 -7 12 1 -1 -4 -3 -2 -0 -0 0 2 1 1 0 -0 1 0 -0 -1 -0 -2 -2
-1 2 -1 2 -4 -6 -4 -8 -3 -2 -2 -5 1 -3 -8 0 -1 -2 -3 -1 -1 4 -6 4 6 -3 2 -2 3 0 0 -2 -0 3 -1 1 -1 -2 -1 0 0 -1 1 -0
-1 1 -3 1 -0 5 -2 8 5 2 1 -0 -3 -2 -1 -0 -0 0 0 -1 1 -3 -0 10 29 -2 1 -0 1 3 2 2 -2 2 -1 -1 -2 -1 -2 -0 -0 0 -0 -1
5 -2 -0 1 -2 0 6 -3 6 -1 1 0 3 -1 2 3 2 1 0 0 -1 1 2 -0 -3 0 1 -1 1 -1 1 3 0 1 -1 -0 -0 -1 -1 -1 -2 -0 -1 -1
1 -4 3 3 -1 -4 2 2 3 3 2 3 1 2 1 0 1 1 2 -1 -2 -2 1 1 0 1 1 4 -2 -2 0 -2 -0 -1 -1 -1 -1 -0 -1 -2 -1 -1 -0 -0
-1 -1 -0 -3 -3 1 3 -2 -2 2 0 1 5 1 -1 -1 0 -1 1 -1 -1 -2 -2 -1 2 4 6 -3 -3 1 -1 -1 -2 -2 -2 -3 -2 -2 -0 -1 -0 1 -1 -0
1 2 1 7 8 3 2 -2 0 0 -1 -3 3 -1 1 0 0 -0 0 -1 1 2 0 -3 -1 -1 -2 2 5 2 -2 1 -1 -1 -1 -2 -2 -2 -1 -2 -2 -3 -2 -0
2 0 0 -1 4 -2 3 1 -0 0 2 -5 -9 -7 0 1 -0 0 -2 1 0 -2 1 2 -1 -1 -0 2 1 1 1 0 -0 -1 -1 -4 -3 -0 0 1 -1 -3 -2 -0
4 0 -0 -1 0 -1 -0 -0 -1 3 -9 9 -13 2 -7 -4 -2 -3 10 -2 -2 2 0 -2 2 -1 -2 -2 -1 1 1 -0 -0 -1 -0 -1 -1 -0 -0 1 0 -1 -0 -1
0 -1 -0 -1 0 1 1 -1 0 -0 -2 3 3 -9 -1 -7 -0 1 -5 -2 1 -1 -1 1 -1 2 1 0 -1 -1 -1 -1 1 -1 -3 -2 0 -1 -5 -2 2 3 -0 -3
1 0 1 -0 0 1 5 -10 -2 -2 0 -0 4 -18 -2 -4 -1 -1 -3 -3 -2 -2 6 -2 -3 -2 1 -0 0 -2 -0 -2 -3 -2 0 -1 -1 -1 1 -0 -2 0 1 2
0 1 1 0 1 2 5 0 1 2 -3 -1 1 -3 -1 -1 -4 -2 -4 3 1 -3 -1 -2 3 3 -0 4 0 0 -1 -3 -3 -0 0 2 -0 -1 -0 2 -3 -2 2 1
1 1 1 2 -0 -7 -9 1 1 1 -9 -1 0 -1 -1 -1 -2 -13 6 3 -2 2 6 -4 6 5 5 2 3 2 0 1 1 1 1 -0 0 -1 -2 1 -2 -3 -1 1
1 2 6 1 3 0 7 2 -1 0 -2 0 -0 -0 0 -1 2 1 -2 -3 1 7 -2 -3 2 9 3 0 1 -0 -1 -1 -2 -1 -0 -1 -1 -0 -2 -1 -1 2 -2 -3
1 1 -0 -1 -0 -6 -0 -1 -1 9 11 -0 -0 -0 -0 2 3 -3 -2 -0 -1 -0 0 1 2 4 3 -0 1 -1 -1 -1 0 -0 -1 0 0 2 2 1 -4 -1 -1 2
-2 1 -1 2 3 -5 -1 3 5 6 1 -0 0 1 -1 -1 -1 -2 -1 -1 -2 1 3 3 1 1 1 3 1 1 -0 1 -1 -1 -2 -2 -2 -2 -3 -1 1 -0 -2 0
1 -3 5 2 -4 3 -2 -1 -2 2 -0 -1 0 -1 -1 0 1 0 1 1 1 1 2 2 2 3 2 -0 0 1 0 0 0 -1 0 -1 1 1 1 1 -2 -2 -1 -1
-0 -0 1 3 -6 -2 2 -2 -3 1 -1 0 -1 -1 0 -2 1 1 -1 0 1 0 0 1 2 1 0 0 1 -1 -1 -0 0 -2 1 -1 1 1 -1 -2 -0 -3 -1 -1
4 3 -1 -7 -5 -3 -9 1 0 0 -1 -1 -0 -0 0 1 -2 -1 -0 -1 -1 0 -1 -1 -0 0 -1 1 2 0 1 -0 1 -1 0 -1 -0 -1 -1 -1 -1 -0 -1 -0
-1 -3 5 -7 1 7 -2 2 2 1 -1 1 2 0 -1 1 1 1 -1 -2 -1 -5 -4 -1 0 1 0 -0 -2 -2 0 -1 -0 1 -1 -1 1 -0 -1 -1 -1 -2 -1 -0
Height
1480 1480 1479 1464 1462 1460 1464 1470 1470 1473 1484 1493 1495 1496 1495 1500 1505 1507 1508 1509 1509 1512 1516 1516 1517 1519 1521 1524 1528 1530 1532 1535 1538 1540 1543 1546 1546 1548 1551 1553 1554 1554 1555 1555
1482 1480 1477 1464 1462 1467 1464 1477 1482 1483 1487 1492 1491 1492 1494 1495 1498 1499 1500 1503 1504 1507 1511 1513 1515 1516 1518 1521 1523 1526 1530 1532 1534 1538 1540 1543 1545 1546 1548 1548 1549 1550 1551 1551
1478 1480 1476 1471 1467 1471 1469 1472 1479 1485 1488 1493 1488 1489 1489 1489 1492 1494 1495 1495 1498 1501 1506 1510 1511 1513 1516 1518 1520 1522 1526 1530 1531 1534 1536 1537 1539 1541 1543 1544 1545 1545 1546 1547
1478 1484 1478 1475 1470 1466 1473 1469 1475 1481 1491 1496 1492 1483 1472 1479 1483 1487 1489 1490 1492 1495 1501 1503 1507 1510 1513 1515 1516 1519 1522 1525 1527 1530 1532 1534 1536 1538 1539 1540 1540 1541 1542 1542
1485 1485 1484 1478 1474 1473 1473 1475 1476 1482 1485 1482 1489 1494 1472 1471 1476 1479 1483 1487 1488 1491 1494 1497 1502 1506 1509 1511 1513 1516 1519 1521 1524 1527 1529 1531 1533 1534 1535 1536 1537 1537 1537 1537
1485 1489 1490 1481 1476 1479 1480 1482 1485 1488 1488 1499 1486 1485 1470 1466 1471 1472 1475 1479 1483 1486 1489 1493 1497 1501 1504 1507 1510 1512 1515 1518 1521 1523 1526 1528 1529 1531 1532 1532 1533 1533 1533 1532
1490 1493 1492 1489 1483 1483 1481 1483 1498 1505 1506 1493 1477 1480 1472 1465 1469 1473 1474 1473 1476 1480 1485 1488 1494 1493 1499 1503 1506 1509 1512 1515 1518 1520 1522 1524 1525 1527 1527 1528 1528 1528 1528 1528
1485 1491 1490 1486 1484 1483 1478 1476 1483 1493 1489 1482 1485 1485 1469 1463 1468 1472 1473 1474 1475 1476 1481 1486 1489 1492 1495 1499 1502 1505 1508 1511 1515 1516 1518 1520 1521 1523 1524 1524 1524 1524 1524 1524
1482 1491 1492 1490 1486 1484 1481 1482 1486 1484 1479 1478 1474 1470 1463 1464 1465 1468 1471 1473 1474 1475 1479 1483 1486 1488 1493 1494 1498 1501 1505 1507 1512 1513 1516 1517 1518 1519 1520 1520 1520 1520 1520 1520
1477 1490 1495 1488 1489 1486 1485 1481 1490 1492 1494 1486 1476 1471 1459 1465 1469 1468 1469 1471 1472 1474 1476 1479 1481 1484 1488 1490 1494 1499 1503 1506 1508 1511 1512 1514 1515 1516 1516 1517 1517 1516 1516 1516
1478 1478 1496 1490 1496 1487 1488 1488 1485 1481 1485 1478 1469 1465 1452 1467 1469 1470 1471 1472 1472 1473 1473 1475 1477 1481 1485 1487 1489 1496 1500 1503 1505 1508 1509 1511 1512 1513 1513 1513 1513 1513 1512 1512
1480 1477 1491 1489 1488 1488 1484 1478 1478 1486 1488 1483 1484 1470 1461 1467 1469 1471 1471 1472 1472 1471 1472 1473 1476 1479 1480 1482 1487 1493 1498 1500 1502 1505 1507 1508 1510 1510 1510 1509 1509 1509 1508 1508
1478 1481 1492 1494 1490 1486 1485 1480 1479 1476 1489 1485 1482 1469 1464 1467 1470 1470 1470 1471 1472 1471 1471 1473 1476 1478 1481 1484 1486 1490 1494 1496 1499 1502 1503 1504 1506 1507 1506 1505 1505 1505 1505 1504
1482 1476 1476 1476 1474 1472 1482 1478 1479 1486 1492 1481 1475 1469 1465 1467 1468 1469 1468 1469 1470 1472 1471 1472 1474 1476 1480 1484 1486 1489 1491 1493 1495 1497 1499 1501 1503 1503 1502 1501 1501 1501 1502 1501
1482 1482 1482 1479 1479 1482 1481 1477 1476 1484 1482 1480 1471 1465 1461 1461 1462 1463 1465 1469 1470 1470 1470 1472 1472 1474 1477 1481 1484 1486 1488 1490 1492 1494 1496 1497 1499 1499 1499 1498 1497 1497 1497 1497
1482 1485 1486 1484 1477 1480 1481 1476 1473 1471 1471 1473 1472 1466 1464 1462 1461 1462 1465 1468 1467 1468 1467 1469 1471 1473 1475 1477 1480 1482 1485 1487 1489 1490 1492 1494 1495 1494 1495 1496 1495 1493 1491 1491
1479 1479 1483 1476 1481 1478 1477 1465 1463 1463 1463 1465 1468 1464 1461 1459 1459 1461 1462 1464 1464 1464 1464 1466 1467 1469 1472 1474 1476 1479 1481 1483 1486 1488 1488 1489 1491 1491 1491 1490 1491 1491 1490 1487
1476 1478 1479 1478 1480 1479 1455 1460 1459 1458 1455 1457 1459 1460 1461 1460 1459 1459 1458 1458 1458 1460 1460 1461 1463 1465 1468 1471 1473 1475 1477 1479 1482 1483 1484 1484 1485 1487 1487 1486 1487 1488 1489 1487
1478 1474 1475 1478 1471 1461 1453 1456 1460 1460 1455 1454 1456 1458 1459 1459 1459 1453 1452 1452 1452 1454 1454 1454 1456 1460 1463 1466 1468 1471 1473 1476 1478 1479 1480 1481 1482 1482 1483 1483 1483 1484 1485 1485
1480 1480 1476 1477 1477 1469 1455 1461 1463 1464 1458 1455 1458 1457 1458 1458 1455 1448 1451 1449 1448 1449 1450 1450 1452 1455 1458 1461 1463 1466 1469 1472 1473 1475 1477 1478 1478 1479 1479 1479 1480 1480 1481 1483
1480 1479 1479 1475 1474 1461 1455 1462 1464 1464 1457 1456 1457 1457 1457 1456 1454 1452 1449 1448 1446 1446 1447 1448 1449 1452 1455 1457 1460 1463 1466 1469 1471 1472 1473 1475 1475 1475 1475 1474 1475 1477 1478 1480
1467 1468 1467 1467 1469 1469 1458 1463 1463 1455 1455 1455 1456 1456 1455 1454 1452 1451 1449 1448 1447 1446 1446 1447 1448 1450 1452 1455 1458 1461 1464 1466 1468 1469 1470 1471 1472 1471 1471 1472 1472 1473 1475 1477
1472 1463 1460 1461 1455 1456 1457 1455 1455 1455 1454 1454 1454 1453 1453 1452 1451 1450 1449 1448 1447 1447 1447 1448 1449 1451 1453 1455 1458 1460 1462 1463 1464 1466 1467 1468 1468 1467 1468 1468 1469 1471 1473 1474
1464 1464 1466 1464 1453 1453 1453 1454 1453 1452 1452 1452 1451 1451 1450 1449 1449 1448 1448 1448 1448 1448 1449 1449 1450 1451 1453 1455 1457 1458 1459 1461 1462 1462 1462 1464 1464 1463 1464 1465 1466 1468 1470 1472
1465 1466 1461 1457 1455 1453 1450 1449 1449 1449 1449 1448 1448 1447 1447 1447 1447 1447 1447 1448 1449 1449 1450 1451 1451 1452 1453 1454 1454 1455 1456 1457 1458 1459 1459 1460 1461 1460 1461 1462 1463 1465 1467 1470
1467 1463 1460 1454 1451 1451 1449 1449 1448 1446 1445 1445 1445 1444 1444 1445 1445 1445 1446 1447 1448 1449 1450 1450 1450 1451 1451 1452 1453 1453 1454 1454 1455 1455 1455 1456 1457 1458 1458 1459 1461 1462 1464 1466